Overview Statistics Trail Chart Weather Telemetry Raw packets
 

This is the latest recevied weather packets stored in our database for station/object EA3GKP-10. If no packets are shown the sender has not sent any weather packets the latest 10 day(s).

<< 2 3 4 5 6 7 8 >>
Time Temp. Humidity Pressure Rain* Wind** Luminosity Snow
1788539943 26.67° C - - 0 mm 1.34 m/s, 121° - -
1788539636 27.22° C - - 0 mm 1.34 m/s, 118° - -
1788539329 26.67° C - - 0 mm 1.79 m/s, 187° - -
1788539023 27.22° C - - 0 mm 0.89 m/s, 155° - -
1788538713 27.78° C - - 0 mm 1.79 m/s, 177° - -
1788538409 27.78° C - - 0 mm 0.45 m/s, 183° - -
1788537800 27.78° C - - 0 mm 0.89 m/s, 229° - -
1788537496 27.22° C - - 0 mm 0.89 m/s, 188° - -
1788537186 27.78° C - - 0 mm 0.45 m/s, 181° - -
1788536880 27.22° C - - 0 mm 1.34 m/s, 155° - -
1788536574 27.78° C - - 0 mm 1.34 m/s, 145° - -
1788536270 28.33° C - - 0 mm 2.24 m/s, 84° - -
1788535964 28.89° C - - 0 mm 0 m/s - -
1788535658 28.33° C - - 0 mm 0.89 m/s, 179° - -
1788535352 27.78° C - - 0 mm 0.45 m/s, 129° - -
1788535049 27.78° C - - 0 mm 0 m/s - -
1788534743 27.78° C - - 0 mm 0.45 m/s, 176° - -
1788534440 27.22° C - - 0 mm 1.34 m/s, 108° - -
1788534136 27.78° C - - 0 mm 1.34 m/s, 332° - -
1788533827 27.78° C - - 0 mm 0.89 m/s, 212° - -
1788533523 27.78° C - - 0 mm 1.34 m/s, 184° - -
1788532917 27.22° C - - 0 mm 1.79 m/s, 111° - -
1788532610 29.44° C - - 0 mm 1.79 m/s, 195° - -
1788532306 30° C - - 0 mm 1.34 m/s, 191° - -
1788532000 28.89° C - - 0 mm 1.79 m/s, 177° - -

* Rain latest hour (hover to see other rain measurements)
** Current wind speed in m/s (hover to see current wind gust speed)